Theta_e
290 291 291 292 291 291 291 290 289 288 289 287 284 285 289 290 285 283 288 290 287 290 293 294 295 296 296 296 297 298 298 299 299 298 297 297 297 297 297 297 297 296 295 294 293 291 289 289 288 287 287 287 287 287 287 286 284 282 281 280 279 278 278 277 277 277 277 277 277 276 276 275 275 274 274 273 273 273 272 271 271 271 271 271 270 270 271
288 289 290 291 290 290 290 290 291 291 290 288 288 288 289 289 287 289 289 290 289 292 294 295 296 297 297 297 298 298 298 297 298 298 296 296 296 296 296 296 297 297 296 296 294 292 289 288 288 287 286 286 286 285 285 283 282 281 280 279 278 277 277 277 277 277 276 276 275 275 275 274 274 273 273 272 271 271 270 270 270 270 270 270 270 270 270
284 287 289 290 289 289 288 289 290 291 290 290 290 289 290 289 288 289 289 289 288 294 296 296 298 298 298 297 296 297 297 297 297 297 297 297 297 298 298 298 297 297 296 296 295 293 291 289 288 287 286 286 286 285 283 282 281 280 279 278 277 277 277 277 276 276 275 275 275 274 274 273 273 272 271 270 270 269 269 269 269 269 269 269 269 270 271
281 286 286 287 288 288 287 286 287 288 288 286 288 287 290 288 285 288 288 286 287 292 296 296 297 296 295 295 295 296 296 297 297 297 297 297 297 297 298 298 298 298 296 295 294 293 291 289 288 287 286 285 284 283 282 281 279 279 278 277 276 276 276 276 275 275 274 274 273 273 272 272 271 270 270 269 268 268 268 268 268 268 268 269 270 270 270
279 285 286 286 286 284 281 283 286 288 288 289 289 290 291 290 291 286 284 285 291 293 295 293 293 294 295 295 295 296 296 297 298 297 297 297 298 298 298 298 298 298 298 296 295 294 293 290 288 287 286 285 283 283 281 280 278 277 277 276 276 276 276 275 274 274 274 273 272 271 271 270 269 268 267 267 267 266 266 267 268 268 268 269 269 270 269
280 284 284 285 281 274 276 288 291 291 288 288 286 287 289 291 292 289 292 291 293 294 294 293 293 293 294 295 297 298 298 298 298 298 298 298 298 298 298 298 298 299 299 298 296 295 293 291 289 288 286 285 284 282 280 278 277 276 276 276 276 275 274 274 273 273 272 272 271 270 269 268 267 267 266 266 267 267 267 267 267 267 268 268 268 268 269
279 283 283 279 273 275 286 291 293 293 292 291 289 290 291 292 293 293 292 292 293 294 295 295 295 296 297 298 298 299 300 300 299 297 297 297 297 298 298 298 299 299 299 299 296 293 291 289 288 286 285 284 281 279 278 277 276 276 276 275 275 274 273 273 272 272 271 270 269 269 267 267 266 266 266 266 266 266 267 267 267 267 267 268 268 268 267
283 281 279 274 273 285 289 291 292 294 293 292 290 288 291 292 292 293 291 293 294 295 295 296 297 297 298 298 298 299 299 299 298 297 297 298 298 298 298 298 298 299 298 298 295 293 290 289 286 285 284 282 280 278 277 276 275 275 275 275 274 273 272 272 271 271 270 269 268 267 266 266 265 266 266 266 266 267 267 267 267 267 267 267 267 266 266
278 279 279 278 286 282 285 288 289 290 288 288 287 283 287 292 293 293 292 293 294 295 296 297 297 297 297 295 295 299 299 299 298 298 298 298 298 299 299 299 299 299 299 297 294 292 289 287 285 284 282 281 279 277 275 275 274 274 275 274 273 273 272 271 270 270 269 268 267 266 266 265 265 265 265 266 266 266 266 266 266 266 266 266 266 266 266
285 279 278 279 277 275 282 290 293 296 295 295 293 289 286 295 295 296 294 293 294 295 295 295 296 296 292 289 292 297 298 299 297 297 298 299 299 299 299 299 299 298 295 294 292 291 288 286 285 284 281 280 277 275 274 274 274 273 273 273 272 272 271 270 269 269 268 267 267 266 265 265 265 265 266 266 265 266 265 265 265 266 266 265 266 266 266
284 280 277 276 275 278 287 289 293 295 296 296 294 288 283 292 294 295 295 294 294 294 294 294 295 290 287 289 292 297 298 298 298 297 298 298 299 299 299 298 298 296 294 292 290 288 287 285 284 282 280 278 275 275 274 273 273 273 273 273 272 271 270 269 268 267 267 267 266 266 265 265 265 265 265 265 265 265 265 265 265 265 265 265 265 265 266
281 280 278 276 281 280 288 291 292 294 295 296 289 278 279 292 293 295 294 293 293 294 294 294 293 290 288 289 293 297 298 298 298 297 297 297 298 298 298 297 297 295 290 288 287 286 285 285 283 280 279 276 275 274 273 273 272 272 272 272 271 270 269 268 267 266 266 266 265 265 264 264 264 264 265 264 264 264 264 265 264 265 265 264 264 264 265
280 281 278 281 282 289 290 292 294 294 296 292 281 275 284 293 294 295 295 294 294 294 294 294 290 292 294 295 297 298 298 296 296 297 298 298 298 297 297 295 290 289 287 288 287 286 286 284 280 279 278 276 275 274 272 272 271 272 272 271 270 269 267 266 265 265 265 265 264 264 264 263 263 263 264 264 264 263 263 264 264 264 263 263 263 264 266
279 280 278 278 283 288 294 294 294 295 291 280 279 289 295 295 294 295 295 295 295 295 294 294 294 295 296 296 296 296 296 296 296 296 296 295 294 292 289 289 287 287 285 286 285 284 283 281 279 278 277 276 275 273 272 271 272 272 271 269 268 267 266 265 264 263 263 263 263 262 262 262 262 262 264 264 263 262 263 263 262 261 262 263 264 265 266
283 281 278 277 274 287 295 293 292 293 285 286 294 295 296 296 295 295 295 295 295 295 294 295 295 296 295 295 295 295 295 295 295 295 295 294 293 293 289 286 286 286 285 284 284 282 280 278 278 277 276 275 274 273 272 272 272 271 269 268 267 265 264 263 262 262 262 261 261 261 261 262 262 262 262 261 261 262 262 262 262 262 263 264 264 265 266
279 278 276 277 284 291 295 293 287 291 293 296 296 295 294 296 296 295 295 295 296 296 295 295 294 295 295 295 295 295 295 295 295 296 295 294 292 291 289 287 286 285 284 283 282 281 278 276 276 277 276 275 274 272 272 272 271 268 267 266 265 263 262 261 261 261 261 261 261 261 261 261 261 262 262 261 261 262 262 263 264 263 264 265 265 265 265
286 282 286 290 293 294 296 296 296 297 297 298 297 296 296 295 296 296 296 296 296 297 296 296 295 295 295 295 296 295 295 295 295 295 295 295 292 290 288 286 284 283 284 283 281 278 276 275 275 275 276 276 273 272 272 270 268 266 265 264 263 262 261 260 260 260 260 260 260 260 261 261 260 261 261 261 261 263 262 264 264 263 264 265 264 265 265
290 291 293 292 292 291 290 293 295 295 296 297 296 295 294 296 297 297 296 296 296 295 293 293 293 294 295 295 295 295 295 295 295 295 295 293 291 289 287 285 282 282 283 282 279 277 274 273 273 274 275 276 273 273 270 268 266 265 263 262 261 260 260 259 259 259 259 259 260 260 260 261 261 262 261 262 263 263 263 263 263 263 263 264 265 265 265
282 278 290 288 288 290 290 290 293 294 295 294 293 292 293 294 294 294 294 294 293 293 292 291 291 292 293 293 294 294 294 294 295 295 294 294 291 288 285 285 282 281 281 280 278 276 273 272 272 273 274 275 274 270 267 266 265 263 262 261 260 259 259 259 259 259 259 259 259 259 260 261 262 262 262 263 263 263 263 263 263 263 264 265 265 265 265
280 281 286 287 288 289 291 292 291 291 292 292 293 293 294 294 294 294 293 293 292 293 292 293 292 292 293 292 292 293 294 294 294 294 294 294 292 289 287 285 281 280 279 279 278 275 273 271 271 272 273 273 270 267 266 264 263 262 261 261 259 259 259 259 258 259 260 260 259 259 260 261 261 262 262 263 263 263 264 264 263 264 264 264 265 265 264
279 282 284 287 288 289 290 291 292 291 291 291 291 292 293 293 292 292 293 292 292 292 293 294 293 291 292 293 292 292 293 293 293 293 294 293 293 291 287 283 280 280 279 279 278 274 273 271 270 270 271 271 267 266 265 263 262 261 261 260 260 259 259 258 259 260 261 260 261 260 260 261 262 263 262 262 263 264 265 265 265 265 265 265 266 266 265
277 278 281 287 282 281 287 289 290 290 290 290 289 290 289 289 290 291 290 291 293 293 293 292 292 291 291 292 292 291 292 293 293 293 292 292 291 290 288 283 280 279 278 278 276 274 272 270 269 270 270 267 265 265 263 262 262 261 260 260 259 259 259 259 259 260 260 260 261 261 260 260 261 261 264 266 265 264 264 267 268 269 269 266 267 267 266
276 282 285 288 287 285 287 288 288 287 286 285 285 285 285 286 287 287 287 286 287 287 289 291 291 291 292 292 292 292 292 293 293 293 293 292 291 289 285 280 278 277 277 277 276 273 271 269 268 269 268 265 264 263 262 262 262 261 260 259 259 259 259 259 259 260 260 260 261 261 261 261 261 261 261 264 268 268 267 267 268 268 269 268 269 269 268
280 283 283 283 281 279 281 283 283 284 285 285 284 285 285 285 286 286 286 286 286 287 289 290 292 292 292 293 292 291 292 292 292 292 292 292 291 290 285 282 280 278 277 275 274 273 271 268 268 268 265 264 262 261 261 262 262 261 261 260 259 259 260 260 260 260 260 260 260 260 261 262 262 262 262 262 264 268 268 267 268 268 268 268 268 268 269
278 282 283 282 282 281 282 283 284 285 285 285 284 284 285 286 287 288 288 288 288 287 287 288 289 290 290 290 291 290 291 292 292 292 291 291 291 290 286 281 280 278 277 276 275 273 270 267 267 267 264 263 261 261 261 262 262 261 262 261 260 260 260 260 260 261 261 261 261 261 261 261 261 262 263 262 262 263 266 267 267 268 267 267 268 268 268
282 282 283 283 284 284 285 285 284 285 286 286 286 286 287 287 287 287 287 288 288 288 288 288 288 290 290 289 290 291 290 290 291 290 291 290 290 288 284 281 280 278 278 277 275 271 268 267 267 265 263 262 260 260 260 262 262 262 262 262 261 261 260 260 261 261 261 261 261 261 261 261 262 262 261 262 262 262 261 261 263 266 266 265 266 266 267
283 284 283 281 281 282 284 281 279 282 283 284 284 285 285 286 286 286 287 287 287 287 288 288 288 289 289 289 289 289 289 290 290 290 290 290 290 289 287 283 281 279 277 275 272 269 267 266 265 264 262 261 260 260 261 261 262 262 263 262 262 261 260 261 261 261 262 262 261 261 261 260 259 259 258 258 258 259 259 259 259 259 258 259 262 265 264
283 282 279 275 275 277 277 279 280 281 282 281 281 280 280 282 282 281 282 283 284 286 287 287 287 287 287 288 288 288 289 289 289 289 289 289 290 290 287 285 282 278 275 273 271 268 266 265 264 263 261 260 260 260 261 261 262 263 263 262 262 261 261 261 262 262 262 261 261 260 260 260 259 258 258 257 257 257 256 256 256 256 256 257 256 260 263
276 274 277 277 276 277 278 279 278 278 278 279 279 279 279 278 278 278 279 280 281 281 282 283 285 286 286 287 288 287 288 288 288 288 289 289 289 288 287 283 278 274 272 270 268 266 265 264 263 262 261 260 259 260 261 261 262 262 262 262 261 261 261 262 262 261 261 260 261 261 260 258 258 257 257 257 256 256 256 256 255 255 255 255 255 256 260
272 273 273 274 275 276 276 274 274 275 275 276 276 276 277 276 275 276 278 279 280 280 281 282 282 283 284 284 285 285 285 286 286 287 288 289 289 288 279 273 270 269 268 267 266 265 264 263 263 262 260 259 259 260 260 261 262 262 261 262 261 261 262 262 261 260 260 260 260 259 257 257 257 257 256 256 256 256 255 255 255 255 254 254 257 255 255
270 271 271 272 274 274 271 271 272 272 273 273 273 272 273 273 274 274 275 277 278 278 279 280 280 281 282 282 284 285 286 286 287 287 288 288 289 283 274 272 271 268 267 267 266 265 264 263 263 262 260 259 259 259 260 261 261 261 261 261 261 262 263 263 262 260 259 258 257 256 256 256 256 255 255 255 255 255 254 254 254 254 254 254 254 254 254
266 267 269 271 270 268 267 268 269 268 269 270 269 269 270 270 270 271 272 273 274 275 276 277 279 279 281 282 283 284 284 285 286 286 286 287 285 275 273 273 275 274 273 270 267 266 265 264 263 262 259 258 259 259 261 261 261 261 261 260 261 261 262 262 261 260 258 257 256 256 255 255 255 255 255 255 255 254 254 253 253 253 254 253 253 253 253
263 263 265 265 264 264 264 265 265 265 266 266 267 268 269 269 269 269 270 271 272 273 274 275 277 278 279 280 281 282 282 283 284 284 285 285 281 275 272 273 275 275 275 272 268 267 266 264 263 260 258 258 259 260 261 262 261 262 262 261 261 260 261 262 260 259 257 256 256 256 255 255 255 255 255 255 254 254 254 254 254 253 253 253 253 252 253
262 262 263 263 263 262 262 263 264 264 264 265 266 266 266 266 267 267 268 269 269 270 271 272 274 275 276 277 277 278 279 280 281 282 283 283 280 275 272 272 274 274 273 271 269 266 264 265 262 258 258 258 259 260 262 262 262 262 262 261 260 260 260 259 258 256 256 256 256 255 255 255 255 255 254 253 253 254 253 253 253 253 253 252 253 252 255
264 263 264 264 264 264 264 263 263 262 262 262 262 263 264 264 264 265 266 266 266 267 269 270 271 272 273 274 275 276 277 278 280 281 283 284 282 276 272 270 270 269 267 265 265 264 264 262 259 258 257 258 259 261 262 262 262 262 261 261 260 259 259 257 257 256 256 255 255 254 254 254 254 254 253 253 253 253 253 253 253 252 253 252 252 251 252
262 261 261 261 262 262 262 262 262 262 261 261 261 262 262 262 263 263 263 263 265 266 267 268 269 270 271 271 273 274 276 277 280 281 283 284 282 275 270 269 268 266 264 262 263 264 262 259 257 257 257 258 260 261 261 262 262 262 261 260 259 258 257 256 256 256 255 254 254 254 254 254 253 252 252 252 252 252 252 251 251 252 252 252 251 251 250
261 260 260 260 260 260 260 260 261 261 260 260 260 260 260 261 261 262 263 263 264 265 266 267 268 269 270 271 273 275 276 278 279 281 283 284 278 272 270 269 267 266 264 262 262 261 259 258 257 257 258 259 260 260 260 260 262 262 260 259 258 257 256 256 255 255 254 254 254 253 252 252 252 251 252 252 252 252 252 251 251 251 251 251 251 250 250
259 259 259 259 259 259 259 259 260 260 260 260 260 261 261 261 262 262 263 264 264 265 266 267 267 269 270 272 273 275 277 280 281 282 284 278 272 271 269 268 267 266 263 263 261 259 258 257 257 258 259 260 260 260 260 259 259 260 260 258 257 256 256 255 254 254 254 254 253 252 252 252 252 251 252 252 252 252 252 252 252 251 251 251 250 250 250
258 258 259 259 259 259 259 259 260 260 260 259 260 260 261 262 263 263 263 264 266 267 267 267 269 269 270 272 274 276 278 280 281 282 279 273 271 270 270 270 269 267 266 262 259 259 257 257 258 259 260 260 260 260 259 258 258 259 258 257 257 256 255 255 254 253 253 253 253 253 253 253 253 252 252 251 251 251 251 251 251 251 251 250 250 250 250
256 257 257 258 258 258 258 258 259 259 260 261 260 260 261 262 262 263 264 266 268 269 269 269 271 272 274 275 276 277 279 280 279 276 274 271 269 267 264 260 260 260 259 259 259 258 257 258 259 260 260 260 260 259 258 257 257 258 257 257 256 255 255 254 254 253 253 253 253 252 253 253 253 252 252 251 251 251 250 249 250 250 250 250 250 250 250
256 256 257 257 257 258 258 258 258 259 260 260 260 261 262 262 263 265 266 267 268 270 271 271 271 271 272 273 274 275 272 268 269 270 269 267 266 264 260 255 257 259 259 259 258 258 258 259 259 259 259 260 259 258 258 256 257 257 257 256 256 256 255 254 253 253 253 253 252 253 253 253 252 252 251 251 251 251 251 251 250 250 250 250 250 250 250
256 257 257 257 257 257 258 258 259 259 259 260 261 262 263 265 266 265 265 266 266 268 268 268 267 266 266 266 266 265 265 266 266 266 266 266 265 260 256 256 258 259 258 258 257 258 259 258 258 258 258 258 258 256 256 257 257 257 257 257 256 255 254 254 253 253 253 253 254 254 253 253 252 252 252 251 251 251 251 251 251 250 250 250 250 250 250
256 256 256 256 257 257 258 258 258 258 259 260 261 263 265 264 263 263 263 264 265 265 264 264 264 264 264 265 264 264 263 263 261 258 256 256 258 260 258 256 258 258 257 258 258 259 259 258 258 257 256 256 256 255 256 257 257 257 257 256 255 255 255 254 254 254 254 254 254 253 253 253 253 252 252 252 252 252 251 251 251 251 251 250 250 249 249
256 256 256 256 257 257 258 258 258 259 258 259 261 263 263 262 261 261 261 262 262 263 262 262 263 263 263 263 263 262 261 260 259 259 257 257 257 258 258 257 257 257 257 258 259 259 258 257 256 256 255 255 255 255 256 257 257 256 256 255 255 255 255 254 254 254 254 254 253 254 254 253 253 253 253 253 252 252 252 253 253 252 251 250 250 250 250
256 256 256 257 257 257 257 258 258 258 258 260 261 262 261 260 260 260 261 261 261 261 262 261 261 261 260 260 260 259 259 260 260 259 257 255 254 254 257 257 257 258 258 258 258 257 256 256 256 255 255 255 255 256 257 257 257 256 256 255 255 255 254 254 254 254 254 253 254 254 253 253 254 254 253 253 252 252 252 252 252 251 250 251 251 250 250
256 256 257 258 257 257 257 258 259 259 259 260 261 260 260 259 259 259 259 258 258 259 259 259 259 259 260 260 259 259 258 257 256 257 257 257 255 255 257 257 257 257 257 258 258 257 257 255 255 255 255 255 255 257 257 256 256 256 256 255 255 254 254 254 254 254 254 253 253 253 253 253 253 253 253 252 252 252 251 250 250 250 250 250 250 250 250
256 256 257 257 257 257 258 258 259 258 259 259 258 258 259 259 259 259 258 258 258 258 257 258 258 258 259 259 259 258 257 255 255 256 256 257 258 257 257 257 257 257 258 258 257 255 254 254 254 255 255 255 255 257 256 256 256 256 255 255 255 255 254 254 254 253 253 254 253 252 252 252 252 251 250 250 250 250 249 249 250 250 250 249 249 248 248
256 256 256 256 256 257 258 258 257 256 257 257 258 258 259 259 259 259 258 258 258 258 257 257 257 257 258 258 258 258 258 256 254 254 256 256 257 257 257 258 258 257 256 255 254 254 254 254 255 255 255 255 256 256 256 256 256 255 255 255 255 255 254 254 253 253 253 252 251 251 251 251 251 250 250 251 251 250 250 250 250 250 250 249 249 249 248
256 256 256 257 257 257 256 256 256 256 256 257 257 258 259 259 259 258 258 258 257 257 256 256 256 256 257 257 257 256 256 257 256 254 256 257 257 257 257 256 256 255 254 254 253 253 254 255 255 255 255 255 256 256 256 256 255 255 255 255 255 255 254 254 253 253 252 251 252 251 251 250 250 250 250 250 250 249 248 248 249 249 249 249 249 248 248
256 256 255 256 256 255 255 255 254 254 255 256 256 257 258 258 257 257 257 257 257 257 256 255 255 256 256 256 256 256 256 256 256 257 257 256 257 257 257 256 255 255 254 253 253 254 254 254 254 255 255 256 255 255 255 255 255 255 255 254 254 254 253 252 251 251 251 251 251 251 251 250 250 250 249 249 249 249 249 249 248 248 247 247 248 249 249
255 254 255 256 255 255 255 255 255 255 255 255 256 256 256 256 256 256 256 255 255 255 255 255 255 255 255 256 256 256 256 256 256 256 256 256 256 255 255 255 254 254 253 253 253 254 255 255 255 255 255 255 255 255 255 255 255 254 253 253 252 251 251 251 251 251 251 251 250 250 250 250 249 248 249 249 248 248 248 247 247 247 246 247 248 248 248
255 255 256 256 255 255 255 255 255 255 255 255 255 255 254 254 254 254 254 255 254 254 253 253 253 254 255 255 255 256 256 256 256 256 255 255 255 254 254 254 254 254 254 254 254 255 255 254 254 254 254 254 254 254 253 253 253 253 252 252 251 251 251 251 251 250 250 250 250 250 250 250 249 248 248 248 248 248 247 247 247 247 248 248 248 247 247
Wind_Speed
25 24 27 27 26 24 15 14 15 15 17 16 20 28 28 15 15 19 18 25 24 21 20 25 28 26 21 18 22 20 22 17 9 7 10 13 12 11 11 12 12 13 14 15 16 12 11 10 12 13 11 12 11 11 12 12 11 11 12 12 13 13 12 12 12 12 11 10 10 10 10 9 9 8 8 7 7 6 6 5 4 5 5 6 7 8 8
19 19 21 23 29 24 21 19 19 20 20 25 31 27 15 18 24 26 28 27 27 21 21 26 28 25 23 23 21 18 19 21 16 7 12 16 15 14 14 16 16 17 18 18 17 15 12 11 12 11 11 12 13 13 13 11 11 11 12 12 13 12 12 11 11 11 11 9 10 10 9 9 8 8 7 7 6 6 5 5 5 5 5 6 7 8 7
18 20 22 25 27 23 22 20 19 14 14 24 26 18 11 24 29 30 33 30 23 16 22 25 23 21 20 21 22 22 25 26 23 17 19 21 21 18 14 13 15 17 18 18 17 16 14 13 13 12 11 10 10 11 11 12 12 11 12 12 11 12 11 11 11 11 11 10 10 10 9 8 6 8 7 6 5 5 4 5 5 5 6 8 8 6 6
16 16 23 27 25 24 24 22 21 23 30 25 16 17 14 18 22 19 15 15 13 19 22 20 16 23 25 24 22 24 23 25 21 16 18 20 20 16 15 16 16 13 13 16 17 17 15 15 12 10 11 11 12 12 12 12 12 12 11 11 12 12 12 12 12 12 10 11 10 10 8 7 7 6 5 5 5 5 4 5 5 5 7 7 6 5 5
17 17 18 19 18 18 17 18 24 35 35 25 21 21 21 21 17 16 16 17 19 21 21 20 23 24 21 18 20 24 25 24 14 13 16 18 15 14 15 16 15 14 12 13 16 17 16 14 13 12 12 11 13 13 13 12 11 12 12 12 12 13 12 12 12 12 11 11 9 9 8 8 7 6 6 5 5 5 5 5 4 5 7 6 5 5 5
14 15 20 15 12 14 17 20 30 23 23 26 29 29 32 28 21 15 14 19 16 20 21 21 24 25 23 20 21 19 18 18 10 10 16 18 15 14 15 14 14 13 11 9 11 14 15 14 14 12 14 13 11 10 10 11 12 12 12 11 11 12 10 11 11 11 10 10 9 9 8 8 7 7 6 6 5 5 4 4 5 6 6 6 5 5 5
11 13 10 10 18 18 20 19 10 19 27 31 32 32 30 25 27 28 27 22 21 26 23 20 28 26 20 22 19 19 20 17 11 15 21 23 18 17 17 15 14 13 12 10 9 9 9 10 10 10 7 9 9 10 10 10 9 10 9 11 8 8 9 10 9 9 10 9 9 9 8 8 7 7 6 6 6 5 4 5 6 6 5 5 4 4 5
7 6 8 12 18 6 3 6 16 19 24 23 23 27 28 32 32 30 24 25 28 27 26 27 26 24 22 17 14 19 21 20 13 14 18 21 19 17 14 14 14 11 9 8 7 9 8 9 9 10 9 10 13 13 14 17 16 17 15 14 12 10 10 10 9 10 9 10 9 9 9 8 8 7 7 6 6 5 4 4 5 5 4 4 4 5 5
14 13 14 24 3 1 7 6 12 18 20 19 23 23 24 27 24 21 22 26 28 29 28 30 26 18 14 11 16 18 22 22 18 15 17 18 19 16 14 12 11 10 6 4 6 6 9 12 12 13 13 16 16 16 15 15 15 14 14 14 10 11 10 10 10 10 10 10 9 9 9 9 8 7 7 7 5 4 5 5 5 5 4 4 4 4 5
15 17 14 11 12 16 14 19 20 17 20 20 18 16 11 2 12 14 21 25 27 30 29 26 21 9 11 14 17 20 22 21 13 14 13 16 16 14 13 11 9 7 4 3 5 9 12 14 15 12 14 15 14 13 14 15 14 11 11 11 10 10 10 10 10 10 9 9 10 10 9 9 8 7 6 5 5 5 5 5 5 5 4 3 4 4 5
11 14 11 10 12 15 9 21 21 25 18 12 6 13 12 6 15 23 23 25 25 24 20 19 16 5 9 12 17 19 20 17 10 8 11 12 13 13 13 12 10 8 7 6 6 8 11 12 12 13 15 16 17 18 17 15 12 13 12 11 12 11 11 11 10 9 9 9 10 10 9 8 8 8 7 6 5 5 5 4 4 4 3 3 3 3 4
13 13 11 11 7 9 11 14 18 20 22 10 3 18 8 8 22 25 25 26 21 19 21 19 15 11 11 15 19 20 18 14 8 7 10 12 12 12 11 8 7 4 6 8 8 11 14 16 14 17 15 18 21 20 18 19 19 19 20 20 11 9 10 10 9 9 9 9 9 9 9 9 7 6 6 5 5 5 5 4 4 3 2 2 3 4 5
19 22 15 9 6 2 6 14 14 17 9 9 16 17 5 14 20 23 24 20 19 19 20 15 13 15 20 20 18 14 10 8 7 7 9 11 10 10 9 6 4 4 7 10 13 15 13 13 16 16 17 18 18 19 20 18 24 20 17 16 13 10 10 10 10 10 8 9 10 8 8 8 7 6 5 5 6 5 5 4 3 2 2 2 3 5 4
12 12 17 20 15 6 7 13 18 12 1 10 16 15 18 23 24 20 19 22 21 18 17 15 16 18 18 14 10 11 12 13 12 11 9 7 6 4 1 2 5 4 5 7 6 2 4 11 14 16 18 19 18 19 18 19 16 11 16 13 11 10 11 10 10 9 9 9 8 8 8 7 7 6 5 5 5 5 5 4 4 3 2 2 2 3 4
14 8 12 8 14 7 20 19 17 12 13 15 15 19 19 20 19 20 19 17 16 16 17 17 18 17 14 13 12 11 11 10 11 12 11 10 12 12 7 4 2 6 7 9 8 7 7 11 14 17 18 19 20 19 25 18 11 13 11 12 11 10 11 11 9 9 9 10 8 7 7 7 7 7 6 5 5 5 4 4 4 3 3 2 2 3 4
10 14 12 11 11 13 20 20 15 12 23 18 21 19 19 17 14 11 10 11 14 15 16 15 13 11 12 12 12 13 12 11 11 10 10 9 10 7 6 8 10 9 8 7 8 8 10 12 14 18 20 19 18 21 18 10 12 14 13 10 11 12 11 10 11 9 9 9 8 7 7 7 6 6 6 5 5 5 5 4 3 2 1 1 2 3 3
13 5 4 8 5 11 10 17 15 15 19 21 22 21 19 15 12 7 10 10 10 12 13 13 11 12 12 13 11 12 11 11 11 11 11 10 11 11 12 12 9 10 14 14 11 10 11 15 16 18 18 19 19 21 9 12 13 15 13 16 13 12 11 10 10 10 9 8 8 8 7 7 7 6 6 6 5 5 5 4 3 2 1 1 2 2 3
14 14 7 11 12 16 16 14 13 14 16 14 11 14 15 12 13 12 12 13 12 14 12 12 10 11 12 12 10 10 10 11 11 10 8 6 8 8 6 6 11 12 9 9 11 13 12 13 15 16 16 15 21 15 15 15 11 13 15 15 13 13 11 10 10 10 11 9 8 9 9 7 7 6 7 7 6 6 5 4 4 3 1 1 1 2 3
10 7 12 15 13 17 16 18 18 16 11 10 13 11 9 11 13 15 16 16 15 11 8 10 10 12 14 15 15 14 13 13 12 12 12 11 9 9 10 14 10 8 11 11 13 15 16 11 11 14 18 13 12 16 20 12 13 14 21 16 13 11 12 11 10 10 11 9 8 8 7 6 5 5 6 5 5 5 5 5 4 3 2 1 1 2 3
9 9 11 16 21 19 14 11 11 8 10 13 11 12 11 11 10 12 13 13 13 13 14 12 12 14 15 15 15 16 15 15 14 13 13 12 8 10 12 7 11 10 12 15 16 15 15 14 14 14 16 14 14 18 14 15 17 18 18 14 14 12 12 10 9 9 8 11 10 7 7 7 7 6 5 5 5 6 6 6 5 4 2 1 1 2 3
16 22 16 12 14 14 12 6 7 10 8 7 10 11 13 14 16 15 14 9 10 11 14 16 14 14 14 15 16 17 17 17 15 15 15 13 13 11 9 10 13 15 16 16 15 15 16 13 15 14 17 14 16 15 15 19 22 16 12 12 12 13 11 9 9 9 8 9 8 8 7 6 5 6 6 6 6 5 5 4 5 4 2 1 1 2 3
16 13 15 13 13 14 16 17 11 7 5 10 13 14 15 16 16 15 18 18 16 14 14 16 16 15 15 16 16 14 15 16 17 17 14 12 10 9 7 6 9 11 9 12 13 15 13 13 15 17 16 15 14 11 16 13 14 15 16 12 11 11 10 10 10 9 8 8 7 8 8 7 6 3 4 8 6 6 6 9 7 3 3 3 1 1 2
17 17 17 13 15 17 13 16 18 17 13 15 18 18 19 20 20 20 21 22 22 23 21 17 16 16 16 16 14 13 13 14 14 14 14 11 10 9 6 8 11 13 15 14 12 12 13 15 17 18 18 15 18 19 16 16 15 15 16 12 10 11 11 9 11 9 9 8 7 7 7 7 7 7 6 7 9 9 8 7 5 5 4 2 1 2 1
22 19 18 15 14 18 19 20 19 20 17 17 18 17 17 18 19 18 18 17 18 19 20 18 14 15 16 16 13 16 17 15 13 14 13 14 12 12 9 12 14 15 13 12 15 19 15 18 19 17 18 18 21 15 13 14 14 15 14 14 13 11 10 10 11 10 9 9 9 8 7 7 7 8 8 8 7 8 8 5 7 7 5 4 4 3 3
19 16 17 14 18 21 18 17 15 14 13 14 16 17 17 16 15 15 17 17 16 18 18 20 20 18 17 19 18 18 18 19 18 18 17 17 18 15 10 12 13 13 15 17 17 15 15 19 18 18 21 19 19 15 11 13 14 14 14 12 13 12 10 11 11 11 9 9 8 9 8 8 6 6 7 8 9 8 6 5 5 6 5 5 5 5 5
19 19 18 19 17 16 13 16 17 14 13 13 15 14 16 15 16 17 16 15 14 14 15 15 17 17 15 16 16 18 18 18 18 18 15 15 15 13 10 13 15 14 15 15 13 14 17 22 22 19 20 22 22 18 13 12 13 14 16 12 13 13 11 13 12 9 9 9 9 8 7 7 6 5 4 6 7 8 7 3 3 4 2 2 6 7 7
17 16 17 18 15 15 13 13 13 16 17 16 15 16 18 20 20 18 17 17 17 16 17 18 18 18 16 15 16 16 18 20 17 17 15 16 16 16 14 13 14 15 14 11 12 16 21 21 20 24 26 23 21 12 15 14 14 12 17 14 9 18 28 18 8 10 8 9 7 7 6 6 6 5 6 6 7 7 6 7 5 3 0 2 5 6 5
16 11 10 5 7 11 13 15 16 15 15 15 15 15 14 15 18 19 20 20 19 17 16 14 15 15 16 14 14 16 14 16 17 16 15 15 14 13 12 13 14 11 11 13 14 15 18 18 22 26 24 20 17 14 15 16 16 14 18 13 10 10 10 13 9 8 7 7 7 7 7 6 5 6 6 6 6 6 6 5 5 3 2 0 1 6 6
10 10 10 9 10 12 12 12 13 14 15 15 14 14 15 18 19 19 19 18 20 20 19 20 18 18 17 17 15 16 14 14 16 16 16 15 14 12 11 9 6 7 8 9 9 14 16 18 21 24 22 19 13 16 16 17 15 16 15 12 10 10 11 10 8 8 8 8 8 7 7 6 6 6 5 4 4 5 4 4 3 2 1 1 2 3 3
13 11 12 13 13 12 11 12 13 16 16 16 16 16 16 17 18 17 18 19 18 20 21 21 20 19 19 19 18 18 20 20 20 20 18 17 15 13 6 6 8 7 7 8 13 16 20 21 24 25 24 16 16 15 16 14 12 19 15 11 9 11 11 10 9 9 9 7 9 11 7 6 5 5 5 5 5 5 4 4 3 2 1 0 0 0 1
15 14 13 12 9 9 12 13 12 13 14 15 17 18 18 14 16 17 19 19 19 20 21 21 21 23 22 21 20 20 19 19 19 19 19 18 17 10 9 11 12 12 17 20 21 22 23 25 25 26 22 15 16 17 18 15 14 15 11 10 9 19 23 23 15 11 8 9 8 8 7 6 6 5 5 6 5 5 4 4 3 2 1 0 0 0 1
15 15 13 8 8 12 14 12 13 14 15 15 16 18 17 16 19 21 21 19 21 22 23 24 24 24 22 21 20 20 20 20 20 20 20 19 16 8 13 16 19 19 21 21 20 22 23 23 25 24 25 20 15 15 16 16 12 15 15 13 11 12 15 21 11 12 7 7 7 7 6 7 7 6 6 5 6 6 6 5 4 3 2 2 1 0 0
14 18 19 20 19 20 17 15 13 15 16 17 16 16 16 16 17 19 19 18 19 20 21 22 22 22 21 21 21 22 22 22 22 22 21 20 15 11 14 14 16 18 17 16 19 22 23 24 25 21 21 14 15 17 24 25 21 16 14 9 9 11 14 13 12 11 8 7 6 7 7 7 7 6 6 5 5 5 5 5 4 4 3 2 2 1 2
9 7 11 14 11 13 16 21 19 18 16 17 17 18 18 18 17 19 20 20 20 23 22 22 22 22 21 21 22 23 24 22 20 20 21 18 16 13 14 15 14 13 11 7 10 12 16 23 21 21 15 15 17 21 21 19 17 17 18 12 11 10 12 13 13 9 9 6 7 10 7 8 8 8 6 5 5 5 5 4 4 3 3 2 1 1 4
11 13 14 15 14 15 15 17 18 19 20 21 22 20 19 18 19 20 21 21 22 21 22 21 21 21 21 21 23 22 22 22 23 23 22 20 15 13 11 11 10 7 6 6 10 12 17 18 22 13 16 16 19 20 18 19 18 16 18 15 16 15 16 13 13 10 10 8 7 8 6 6 5 5 5 6 5 5 4 4 4 3 3 2 1 1 1
12 14 14 13 14 14 15 15 16 18 19 20 21 22 24 24 24 23 25 25 22 21 20 21 22 21 22 22 22 23 22 23 22 22 22 20 14 7 9 11 12 11 10 6 7 12 19 20 14 23 19 15 17 17 17 17 17 16 17 16 16 16 14 12 9 12 9 7 7 5 5 6 6 6 5 5 5 5 5 4 4 3 3 2 1 0 0
11 13 16 16 16 16 18 16 15 16 18 20 22 24 26 27 25 23 22 23 24 21 19 19 20 21 22 23 23 23 23 22 19 19 17 18 7 10 11 11 11 13 13 13 11 19 19 17 21 31 20 16 17 17 19 22 15 14 14 16 20 12 11 10 10 8 8 6 6 7 7 7 6 6 4 5 5 5 5 4 4 3 3 2 1 1 1
14 13 16 16 17 18 19 17 15 17 21 26 25 24 24 25 26 24 24 22 21 19 19 20 20 22 24 24 23 22 22 20 21 21 20 12 11 12 12 13 13 10 12 17 16 18 15 26 34 26 20 17 17 18 21 22 20 17 20 21 16 14 17 15 12 7 7 7 6 7 7 7 9 8 6 5 4 5 4 4 4 4 3 2 1 1 1
17 13 13 15 16 17 19 20 15 13 15 21 25 26 22 20 25 25 24 22 22 17 18 19 21 21 22 22 20 22 22 21 21 22 16 12 12 16 16 15 13 16 11 14 20 19 22 26 23 21 18 17 19 19 20 22 23 15 11 12 12 12 16 11 9 7 6 6 6 7 6 7 7 8 6 5 4 4 3 4 4 3 3 2 2 1 1
16 15 16 16 18 17 18 20 19 16 14 15 19 24 24 21 20 20 22 22 20 15 17 18 19 19 20 20 21 20 22 19 14 11 11 9 9 8 8 10 11 13 18 22 18 17 24 30 22 17 16 17 19 16 15 19 19 13 9 8 8 8 8 8 8 9 8 7 8 9 5 5 6 6 5 5 5 4 3 3 3 3 3 2 2 1 2
18 18 19 17 18 18 18 20 22 20 16 18 19 20 20 20 20 20 21 23 23 20 20 19 18 19 19 20 21 20 12 5 2 3 7 10 8 6 8 7 6 13 17 15 15 19 26 22 19 17 16 17 17 19 15 19 16 8 9 9 9 9 10 9 8 8 7 8 5 6 6 6 7 7 5 5 4 4 4 3 4 3 3 2 2 2 1
20 20 20 20 19 19 20 20 20 22 21 18 20 20 20 18 17 18 20 19 19 18 15 11 11 12 12 10 5 3 4 4 7 8 7 4 6 10 14 7 9 13 19 21 22 21 18 16 15 16 18 18 18 23 21 16 9 8 10 10 8 7 7 8 7 7 5 6 6 6 5 6 6 6 6 5 4 3 4 4 3 3 2 2 2 2 1
20 22 22 20 20 20 20 21 21 22 22 20 19 19 19 16 14 15 15 16 15 13 12 11 11 11 10 8 5 5 6 7 9 11 14 15 15 7 9 12 11 16 24 19 19 14 16 15 17 14 21 18 15 23 18 9 8 9 8 12 11 7 7 7 7 7 7 6 6 6 6 6 6 6 6 5 4 5 4 4 3 3 3 2 2 2 1
21 20 19 19 20 20 20 20 20 19 19 19 17 17 16 14 14 15 15 14 13 12 11 11 11 10 10 10 8 7 7 7 6 6 10 10 13 12 10 9 10 17 24 17 16 14 15 14 10 19 27 26 27 22 12 8 8 8 8 8 9 7 9 8 7 6 6 5 6 6 5 5 6 6 5 5 5 5 4 3 3 3 3 2 1 1 1
20 19 20 20 21 20 19 18 18 19 18 18 16 14 12 13 14 14 13 13 12 11 10 10 10 10 9 9 9 8 8 8 7 5 9 11 10 9 9 13 15 14 15 17 13 11 10 13 20 26 22 25 22 20 10 9 9 8 8 7 7 8 6 6 6 6 5 6 6 6 3 4 4 5 5 5 5 5 4 4 3 3 3 2 2 1 1
20 19 18 20 21 19 18 18 18 18 17 16 14 11 10 12 13 12 11 13 12 10 10 11 10 10 9 8 7 8 10 10 10 11 9 7 7 8 9 10 9 12 18 17 13 14 15 23 27 25 25 22 20 12 8 8 8 8 7 7 7 7 7 6 6 5 5 5 5 5 4 4 4 3 4 4 4 4 3 3 3 2 1 1 1 1 1
18 18 19 19 19 20 21 17 16 17 16 13 12 11 11 12 12 10 10 13 11 10 9 9 9 9 9 9 8 6 7 10 11 11 11 10 11 11 13 16 18 19 15 11 13 13 13 17 17 24 22 19 16 8 8 8 8 7 7 6 6 5 5 6 6 6 5 5 5 5 5 5 5 5 4 5 4 3 3 3 3 3 2 2 1 1 1
19 19 19 21 23 22 18 15 13 12 12 11 12 10 10 11 12 11 11 10 11 9 8 8 8 9 10 10 9 9 6 7 12 9 8 8 9 10 8 6 11 17 21 20 20 17 21 23 24 21 20 18 12 8 8 7 7 7 6 7 7 7 6 6 6 6 6 6 6 4 3 3 4 4 3 3 3 3 3 3 3 2 2 2 1 1 1
19 20 20 18 15 15 15 12 11 11 10 11 12 9 10 11 10 9 9 11 12 9 9 10 10 10 9 10 10 8 9 9 6 9 6 8 10 10 11 16 23 21 14 11 14 11 17 22 20 20 18 14 8 8 7 7 6 6 6 6 6 6 6 5 5 6 6 5 4 5 4 6 5 4 3 3 3 3 2 2 1 2 2 1 1 1 1
16 13 11 10 10 10 10 10 9 9 10 10 9 10 10 9 8 8 9 10 9 9 8 9 9 9 9 9 9 9 10 12 14 14 11 11 13 12 13 13 15 18 15 13 12 10 13 19 17 15 12 8 7 7 6 7 7 6 6 6 7 6 6 7 7 8 6 4 5 5 6 4 4 4 3 3 3 2 2 2 2 3 3 1 1 1 1
12 11 10 10 9 9 11 9 9 9 9 9 9 9 9 9 8 8 9 11 9 9 8 8 9 10 10 10 10 11 12 12 12 12 11 11 12 13 14 11 12 11 11 11 10 9 7 6 7 8 10 8 7 7 6 7 7 7 6 6 6 6 6 6 4 4 4 4 5 5 4 4 4 3 2 2 3 2 2 2 2 1 2 1 2 1 1
12 10 9 9 9 9 9 8 9 8 8 8 8 9 9 9 9 8 9 13 10 8 8 8 9 11 10 10 10 10 9 10 10 10 10 10 11 11 12 14 12 11 11 10 10 9 8 8 9 11 10 8 7 8 8 10 7 6 6 5 6 5 5 4 4 5 4 5 5 4 4 3 3 3 2 2 2 2 2 1 1 1 1 1 1 1 1
Wind_Direction
249 249 253 255 257 253 239 218 226 210 201 207 214 225 232 221 233 249 249 248 250 251 248 258 266 269 275 280 278 278 280 284 270 187 222 233 233 232 231 231 228 226 224 224 222 207 193 183 187 190 186 185 181 183 176 173 159 155 150 152 156 157 158 159 160 155 148 149 148 150 152 157 161 166 167 172 173 179 185 199 214 222 233 240 246 249 249
263 261 257 256 260 262 256 246 243 238 224 222 225 231 217 222 240 243 249 254 254 258 255 256 259 269 278 279 284 285 283 277 270 175 233 248 252 245 241 239 237 233 233 234 231 219 192 181 191 185 182 183 182 176 173 162 155 150 150 157 155 154 159 156 147 144 142 137 145 144 151 158 164 163 167 168 170 179 191 204 216 224 233 244 244 246 253
257 256 259 260 259 262 264 259 262 262 256 245 240 243 221 229 237 242 243 248 260 260 258 258 263 272 278 282 279 277 276 277 274 267 269 271 274 274 267 257 245 240 238 235 235 228 212 194 189 185 180 175 171 169 164 159 153 153 152 152 153 154 153 146 143 142 140 144 145 149 155 157 159 159 163 163 167 179 191 206 218 227 235 240 241 244 249
250 240 246 248 254 258 260 261 258 258 252 246 235 237 224 232 242 246 255 262 255 256 257 263 271 270 268 270 274 275 276 274 279 281 269 269 272 275 273 268 267 262 239 230 230 229 219 204 189 170 170 169 167 172 160 158 154 150 148 146 149 152 150 145 145 142 142 145 146 150 150 157 155 153 155 156 168 181 196 206 218 225 236 239 242 251 256
244 247 247 252 257 258 254 243 238 236 241 255 267 261 251 238 231 245 239 235 236 253 263 270 269 263 258 261 261 266 271 274 277 265 262 264 269 271 270 270 268 262 251 229 226 227 222 206 192 176 162 158 172 169 161 157 138 148 152 154 151 151 149 147 147 148 146 146 146 147 152 152 150 148 153 162 177 188 201 207 218 230 235 239 242 251 259
245 240 246 248 249 233 232 228 232 237 247 243 243 246 244 239 228 228 215 241 246 246 246 250 258 259 259 255 258 262 266 277 277 253 264 270 274 271 265 261 261 263 258 239 226 224 218 203 188 171 170 171 165 151 138 136 147 153 150 152 151 151 141 143 142 141 139 139 144 147 146 145 146 149 161 175 182 190 192 204 224 235 236 241 245 249 257
237 239 249 251 233 235 233 241 245 240 241 242 242 245 251 258 249 246 244 238 237 245 245 246 254 253 258 260 269 273 271 266 264 273 278 279 276 271 270 270 266 264 266 256 235 217 204 180 157 151 145 134 123 129 141 145 147 141 132 139 122 129 132 138 137 137 137 141 141 144 142 145 148 156 164 172 181 190 194 209 220 227 231 231 242 246 262
257 235 208 242 240 217 286 204 230 229 241 246 256 260 252 250 247 246 248 249 247 248 250 252 249 249 257 271 278 272 273 273 257 252 262 270 273 269 267 268 273 274 268 258 223 207 179 151 143 148 156 142 141 148 149 158 159 162 154 143 142 142 144 145 145 144 139 142 141 141 143 147 151 160 168 177 179 187 197 216 227 233 237 240 249 254 257
231 219 210 230 257 14 153 176 216 211 218 213 217 235 235 237 245 252 251 246 246 246 249 252 252 258 267 273 267 265 267 267 267 256 256 261 265 264 262 260 263 266 263 238 205 171 156 167 156 171 156 159 158 156 163 167 164 152 144 145 147 152 150 142 142 143 144 142 141 141 147 149 157 164 167 175 179 181 197 216 221 223 227 242 245 255 261
210 235 236 235 224 239 211 215 230 229 229 231 238 250 267 230 265 243 244 242 240 244 247 252 258 260 255 254 257 258 262 266 259 254 249 253 258 259 257 256 247 240 220 179 169 171 171 178 180 168 159 160 156 151 155 141 144 151 154 159 154 149 147 144 140 141 143 140 142 143 148 154 157 160 161 167 174 187 197 212 219 216 226 241 248 248 257
213 233 237 225 227 237 185 231 233 243 240 238 248 250 249 156 244 248 242 245 243 245 251 255 248 137 226 240 246 253 253 262 254 233 245 245 247 249 247 244 236 213 201 184 174 168 169 181 178 159 157 157 157 160 154 158 158 157 172 163 159 156 149 142 139 134 134 138 141 146 147 152 151 156 163 167 169 179 209 217 222 219 221 241 251 266 260
231 246 237 239 200 248 192 219 233 243 251 235 173 248 230 178 226 240 246 246 248 250 245 243 238 213 220 236 246 243 246 252 256 217 228 242 243 244 244 243 239 204 145 131 160 176 186 192 164 160 161 160 166 163 165 155 167 177 177 159 131 120 124 129 128 132 136 136 136 138 143 139 145 150 151 156 172 192 205 210 213 218 220 240 267 273 273
226 224 244 259 260 226 173 220 236 244 253 217 232 235 232 223 231 236 242 250 244 240 245 241 239 225 228 232 241 254 264 269 257 237 224 232 236 243 244 232 139 164 182 183 193 196 197 168 163 164 160 163 172 166 150 165 189 179 138 119 130 132 127 126 127 130 130 134 133 131 133 137 140 146 156 164 177 189 201 214 200 214 221 251 263 265 272
227 225 233 234 243 207 187 233 234 232 139 224 237 235 224 235 232 238 240 244 244 244 239 240 240 245 245 245 247 252 254 252 252 250 239 238 253 263 16 106 157 164 168 204 212 49 136 159 162 163 163 175 170 160 164 189 186 125 130 139 130 128 134 128 125 123 125 123 117 123 127 135 139 151 161 164 174 184 204 188 188 203 224 242 259 278 281
235 241 246 247 237 137 193 225 236 215 232 229 233 249 239 238 239 234 235 239 244 244 248 239 245 252 254 255 253 250 250 249 249 249 243 231 232 231 209 189 130 157 190 197 183 154 139 164 169 170 171 178 180 176 188 186 125 128 130 126 125 123 119 119 115 115 117 123 125 127 135 142 146 151 154 159 183 194 192 185 187 195 217 227 262 279 282
220 215 204 224 205 215 192 202 225 192 221 230 235 241 253 245 242 237 249 245 245 247 252 257 252 243 247 253 255 259 260 259 256 255 251 238 233 223 180 183 177 175 194 188 183 176 167 167 174 177 176 183 184 181 187 117 119 111 119 118 117 115 112 115 117 115 118 123 124 130 136 143 152 154 161 167 185 190 191 189 171 178 196 216 274 275 295
220 246 271 281 281 237 227 232 245 247 234 234 239 242 252 263 263 265 256 261 260 257 265 265 261 266 258 256 255 262 264 265 262 258 251 239 224 213 197 197 176 178 192 191 183 176 176 174 184 188 188 183 181 178 147 124 136 132 127 124 122 122 120 121 122 126 128 131 135 137 145 153 154 159 165 175 184 180 182 177 159 162 190 232 269 294 305
340 320 332 2 14 350 338 335 333 325 328 318 301 291 292 301 315 333 331 335 343 352 1 355 321 305 302 298 297 288 284 279 280 275 269 247 225 212 193 180 186 196 191 181 177 183 178 184 183 190 193 180 181 161 123 129 129 126 130 129 128 126 124 127 129 131 132 136 142 148 156 160 163 163 166 183 182 173 173 163 160 163 184 218 270 303 306
343 285 353 348 337 318 321 313 307 308 315 2 356 358 354 330 336 336 336 334 333 326 338 335 322 309 309 306 304 299 295 287 280 276 268 258 231 205 204 210 179 178 184 186 195 191 187 177 167 175 186 190 151 122 145 133 136 134 129 128 129 132 132 131 133 141 142 147 148 152 160 158 162 163 170 184 173 168 165 157 158 160 179 207 296 300 300
289 300 317 309 301 290 286 287 296 325 2 351 345 334 332 330 324 323 320 325 324 328 320 315 299 292 293 294 294 291 288 285 281 278 270 263 251 225 221 200 177 187 190 199 202 194 197 175 157 166 177 176 151 130 126 135 128 134 137 148 142 139 137 134 139 147 145 143 145 149 163 161 159 167 180 185 176 173 167 162 154 158 152 183 259 294 300
299 294 282 272 279 287 290 312 9 348 338 333 328 328 326 328 326 320 316 312 301 308 302 303 302 295 288 283 282 281 283 283 279 273 269 263 254 244 221 201 186 194 202 203 201 193 198 171 161 161 176 161 148 147 146 140 144 141 143 135 128 130 134 132 137 145 142 152 156 152 155 159 165 169 173 178 173 152 146 143 153 145 154 200 240 267 296
287 286 311 344 326 312 312 305 313 318 331 320 313 313 313 312 309 310 305 302 299 292 290 291 290 287 286 281 279 275 273 273 274 276 275 273 267 255 234 202 201 215 210 203 198 201 192 166 168 174 175 158 146 143 138 144 146 142 143 135 131 138 139 141 145 144 144 151 152 146 147 150 151 156 197 187 167 160 161 176 175 186 179 169 210 261 273
272 290 295 316 307 298 286 303 315 312 313 311 305 304 301 299 296 295 294 292 293 289 283 273 273 274 274 275 277 277 275 272 271 273 276 274 269 252 197 184 202 205 209 204 201 196 185 172 175 176 165 151 150 146 151 157 157 147 143 139 141 140 150 154 153 145 144 146 150 147 148 151 158 158 161 180 180 156 149 148 150 145 121 114 11 333 298
282 291 295 309 304 294 298 297 297 300 308 307 300 292 284 281 284 285 285 286 287 289 290 289 280 277 280 281 280 278 277 275 274 274 273 271 265 259 215 205 209 208 207 197 196 203 185 174 176 175 165 152 155 147 156 163 163 156 150 146 150 153 147 144 146 145 142 145 145 145 148 159 164 162 161 152 164 174 157 140 144 135 121 79 42 44 21
279 289 288 282 278 282 287 290 295 301 298 290 288 292 293 294 290 289 287 289 287 285 286 287 288 284 280 279 277 275 274 275 273 271 270 268 266 259 228 214 215 206 205 203 205 195 174 176 174 175 169 167 157 150 157 158 166 158 157 142 135 143 145 143 145 143 141 145 146 146 152 159 164 169 160 156 150 156 162 141 142 138 90 64 40 43 28
274 277 279 280 278 279 288 292 289 291 296 302 300 299 299 299 302 300 295 292 294 294 290 287 286 287 283 280 277 277 276 273 274 273 272 267 265 257 230 219 216 212 211 207 198 179 176 176 177 172 161 161 161 156 152 158 167 164 156 144 138 143 144 149 142 147 147 147 144 145 151 153 156 153 149 142 141 142 148 144 154 171 180 32 32 30 21
282 283 289 290 291 293 300 311 319 331 323 320 317 321 323 321 316 313 310 306 299 294 288 285 283 283 282 278 276 271 271 275 273 271 269 267 264 259 240 226 221 216 208 196 185 182 177 176 173 165 167 161 147 143 157 157 157 155 153 141 124 155 155 151 131 143 140 140 134 131 136 141 144 142 135 134 133 143 148 150 153 158 230 323 350 16 17
289 327 17 349 316 316 315 315 312 316 321 326 325 320 315 315 314 314 311 309 308 306 304 302 299 295 291 287 282 281 275 273 272 271 269 267 266 262 245 230 224 207 193 191 190 177 171 174 176 173 169 153 150 158 158 157 160 151 148 142 140 137 142 146 126 123 122 124 129 136 144 144 139 132 133 140 141 135 133 131 141 149 181 194 322 316 337
1 346 330 323 307 300 303 312 321 324 321 319 316 316 322 318 311 307 302 300 301 301 296 295 293 292 290 291 290 288 286 285 282 280 276 274 272 262 250 230 197 179 181 181 169 168 174 175 178 180 177 156 158 161 161 160 160 154 150 149 143 141 141 139 129 125 127 131 142 139 131 124 130 126 118 119 112 117 112 113 111 114 100 340 341 334 0
331 334 321 314 312 316 331 333 322 317 314 316 319 318 316 314 309 301 297 298 297 294 294 294 293 290 289 286 284 282 279 277 276 275 272 268 265 255 207 127 114 119 140 159 176 177 180 184 183 185 176 155 163 160 158 158 142 131 134 139 138 132 128 130 125 128 127 121 129 126 122 125 120 122 126 126 123 116 115 110 121 117 116 144 7 248 341
316 312 303 297 313 339 333 318 315 309 310 314 317 311 304 300 297 297 295 297 300 296 293 292 290 288 285 281 279 277 275 272 270 269 268 266 263 241 168 158 161 184 187 194 186 183 185 188 188 188 147 144 150 157 158 154 147 143 139 142 137 148 147 146 142 138 131 129 130 133 130 127 130 134 136 132 126 121 116 115 123 132 155 145 6 337 353
323 316 316 336 349 330 320 319 316 311 306 305 305 300 297 300 298 296 295 291 288 290 291 290 287 284 283 284 284 282 280 277 274 272 270 269 263 202 189 191 203 203 203 196 187 185 190 188 191 185 151 145 153 156 158 152 142 153 161 152 140 142 143 139 129 135 118 120 126 126 136 133 138 140 135 136 136 133 130 135 148 157 161 157 174 186 278
347 339 335 335 338 330 323 314 312 304 304 303 295 291 292 289 284 284 285 286 289 291 289 285 284 286 288 290 289 286 283 280 277 273 270 266 254 214 203 206 211 213 210 201 191 190 187 189 189 142 139 153 151 158 164 162 160 155 151 130 128 132 140 140 131 127 114 126 133 136 133 137 137 139 140 136 129 129 131 138 142 147 151 158 172 182 222
321 289 287 297 300 301 306 305 308 305 302 297 290 290 290 290 289 289 292 293 292 288 285 287 289 289 290 288 284 282 281 280 276 270 264 259 246 225 212 209 214 216 220 198 196 202 205 187 149 124 145 136 152 161 164 159 158 158 153 140 128 130 135 138 137 127 135 128 134 139 133 140 144 141 134 131 130 126 132 134 142 146 147 157 169 176 268
303 295 288 285 286 283 280 280 286 293 297 298 299 296 289 285 285 286 289 290 287 285 288 290 288 288 284 283 279 277 274 270 268 269 269 264 253 224 206 202 205 199 187 197 192 195 178 145 135 125 122 140 157 165 161 162 157 153 152 143 138 120 121 126 141 142 139 133 131 135 131 133 121 119 119 123 120 124 128 131 140 146 149 151 159 149 282
309 303 298 292 289 286 285 283 283 285 288 288 286 287 289 287 288 288 288 286 284 282 281 283 283 280 276 273 275 272 270 268 268 266 267 265 256 198 177 187 188 189 186 193 178 158 145 137 129 141 148 141 158 156 157 153 151 148 146 136 109 121 102 114 103 85 92 113 125 124 118 109 106 116 121 118 120 120 127 128 143 144 147 148 149 151 237
300 297 297 295 293 290 287 286 283 284 283 282 282 285 285 285 284 283 281 281 281 278 275 278 279 277 274 273 270 268 267 267 267 269 267 266 230 172 178 183 178 188 172 176 172 148 141 141 138 146 144 152 153 151 152 151 149 148 140 131 118 130 130 130 131 127 128 119 113 113 113 118 120 119 118 123 124 128 129 134 142 142 139 142 144 179 223
302 295 292 292 293 292 289 286 284 282 281 281 278 275 276 283 287 285 283 275 272 270 268 270 271 272 274 272 270 266 265 264 262 261 261 235 172 178 181 185 193 177 186 198 150 146 141 143 144 148 155 156 154 152 154 155 143 142 142 131 118 124 117 112 121 120 128 123 121 126 133 134 136 135 129 119 122 129 135 135 141 143 142 146 155 178 193
306 299 287 289 291 289 291 292 290 281 280 284 287 287 282 277 276 276 271 268 274 264 263 267 273 269 264 265 265 266 263 258 257 257 249 198 181 177 198 199 206 191 182 137 139 144 143 148 153 154 156 152 150 150 150 146 145 137 125 122 127 120 121 120 127 118 115 123 131 138 128 132 132 133 125 128 123 123 126 134 137 133 140 141 157 169 198
303 305 299 299 297 299 299 297 297 293 285 280 284 289 291 284 276 273 275 280 282 272 269 272 275 276 278 277 275 274 273 274 267 241 212 183 159 141 81 55 69 82 113 133 136 144 147 147 149 152 151 150 150 147 145 142 139 130 110 118 113 120 122 124 123 126 131 132 136 139 120 123 119 121 117 124 125 131 133 133 136 139 138 139 161 184 203
302 302 305 303 300 301 301 301 301 300 297 292 284 275 278 278 278 285 294 296 297 298 294 288 287 284 282 281 280 284 297 331 303 200 132 125 127 126 122 85 101 119 132 138 140 140 147 152 150 149 150 149 145 147 144 141 135 119 124 119 124 129 132 135 129 130 134 135 134 136 136 122 120 120 121 123 128 128 137 139 143 144 143 152 176 188 206
304 304 302 305 303 304 302 300 298 300 299 294 287 282 278 282 294 299 297 298 298 300 305 308 307 305 306 306 317 19 41 52 73 67 60 77 152 144 119 108 135 132 129 125 132 139 145 142 144 144 144 144 145 144 140 139 122 118 125 130 120 118 110 113 116 122 118 125 127 123 122 126 125 122 125 123 128 132 137 140 136 139 149 164 184 191 193
306 308 307 306 305 304 302 304 302 300 300 302 301 301 304 310 307 301 301 302 303 311 319 323 331 336 339 341 356 39 46 45 59 70 63 39 43 55 113 127 132 133 131 133 137 139 141 145 145 141 142 137 131 136 130 114 109 111 103 109 101 117 123 126 119 120 123 126 124 126 129 131 127 127 129 133 137 140 141 145 146 149 154 172 178 184 203
304 302 301 301 303 304 303 301 300 301 302 303 307 308 311 314 313 311 316 319 323 329 336 339 346 350 356 357 1 9 20 20 38 68 85 71 62 50 56 96 111 129 133 136 139 136 139 136 125 138 138 134 133 130 120 105 104 107 109 118 122 120 127 115 114 120 124 119 125 131 131 124 126 126 127 127 134 136 142 140 137 144 152 164 182 182 175
302 301 302 303 302 303 303 302 304 307 304 300 305 313 316 321 321 321 327 332 332 340 350 357 0 6 7 12 19 24 27 33 33 54 91 97 86 84 103 118 126 133 133 131 129 117 106 118 131 134 133 133 129 124 109 111 112 111 117 109 108 107 105 111 118 115 111 113 112 115 114 112 109 119 124 129 129 134 137 144 140 142 154 174 166 176 159
302 301 301 303 304 302 300 300 302 304 300 305 311 311 323 331 332 336 345 344 344 351 359 4 10 9 10 20 38 50 52 45 31 31 33 37 92 115 120 113 111 125 128 123 125 129 124 124 129 129 129 126 123 113 92 92 96 104 103 105 98 107 116 118 112 112 107 111 113 117 117 110 102 109 114 127 126 119 114 123 126 142 167 158 153 142 150
301 302 304 303 302 301 300 303 309 308 309 316 324 326 331 334 336 338 339 343 351 351 354 1 7 5 13 17 18 32 56 66 41 31 56 68 74 87 103 108 114 117 113 112 122 113 118 107 114 124 123 120 115 94 97 102 103 103 102 97 107 100 105 100 104 104 108 103 111 109 104 107 105 101 102 107 111 118 134 150 154 152 156 147 147 162 186
303 304 305 306 302 303 309 313 316 316 319 326 325 319 325 331 333 337 335 344 348 356 4 8 3 5 12 23 26 29 28 78 90 50 33 64 69 83 84 85 96 93 101 102 100 99 101 115 117 115 114 114 111 95 93 96 97 99 94 108 111 113 109 113 112 111 107 105 108 114 114 109 103 114 118 126 125 131 145 153 153 149 146 156 181 177 171
307 305 306 302 303 314 319 325 326 327 327 324 326 327 332 334 333 337 338 344 351 355 356 360 6 9 16 27 33 38 39 25 62 107 77 81 92 90 93 95 93 95 88 86 99 98 111 115 111 111 110 110 93 97 97 93 88 96 99 98 94 98 107 103 106 110 110 118 114 114 110 116 118 125 129 128 129 131 138 147 138 140 144 149 157 190 203
311 310 309 308 322 325 328 331 332 327 322 325 327 332 335 338 345 346 350 348 345 350 4 9 11 12 24 35 44 48 57 71 78 85 84 84 92 95 98 98 103 99 92 97 99 100 105 102 102 102 105 89 72 74 65 94 94 94 88 98 96 87 96 107 108 109 109 101 110 108 114 114 120 119 120 125 133 135 144 145 132 113 107 127 218 217 200
317 316 309 322 329 320 324 329 329 328 329 336 340 340 347 353 355 356 359 357 355 7 14 20 22 18 23 36 50 57 66 69 70 72 85 81 78 83 89 86 90 90 81 81 86 94 92 79 87 97 99 90 81 77 85 89 91 94 96 88 90 96 104 107 102 97 101 106 108 111 109 111 116 129 141 142 142 142 139 132 144 155 170 202 205 215 219
313 310 317 335 326 323 323 332 338 344 346 352 355 359 359 1 4 4 5 6 8 16 12 19 30 20 25 38 45 53 57 64 70 67 54 62 79 87 83 78 84 75 74 75 77 71 75 82 90 91 90 82 72 84 86 87 80 78 78 87 101 92 95 98 102 94 101 110 109 110 112 108 124 140 146 141 144 142 135 155 169 173 165 183 182 230 267